Time,TemperatureF,DewpointF,PressureIn,WindDirection,WindDirectionDegrees,WindSpeedMPH,WindSpeedGustMPH,Humidity,HourlyPrecipIn,Conditions,Clouds,dailyrainin,SoftwareType,DateUTC
2013-05-02 00:07:00,65.0,58.0,30.00,SE,136,0.0,0.0,79,0.00,,,0.00,weatherlink.com 1.10,2013-05-02 05:07:00,
2013-05-02 00:22:00,64.5,58.0,30.02,NW,315,7.0,8.0,80,0.00,,,0.00,weatherlink.com 1.10,2013-05-02 05:22:00,
2013-05-02 00:37:00,59.5,48.0,30.05,NW,325,7.0,17.0,67,0.00,,,0.00,weatherlink.com 1.10,2013-05-02 05:37:00,
2013-05-02 00:52:00,56.9,47.0,30.05,NW,322,5.0,12.0,70,0.00,,,0.00,weatherlink.com 1.10,2013-05-02 05:52:00,
2013-05-02 01:07:00,56.0,47.0,30.06,NNW,336,12.0,14.0,71,0.00,,,0.00,weatherlink.com 1.10,2013-05-02 06:07:00,
2013-05-02 01:22:00,54.8,46.0,30.06,North,5,2.0,16.0,71,0.00,,,0.00,weatherlink.com 1.10,2013-05-02 06:22:00,
2013-05-02 01:37:00,54.2,45.0,30.06,NNW,341,10.0,16.0,72,0.00,,,0.00,weatherlink.com 1.10,2013-05-02 06:37:00,
2013-05-02 01:52:00,53.4,45.0,30.08,NNW,329,4.0,15.0,73,0.00,,,0.00,weatherlink.com 1.10,2013-05-02 06:52:00,
2013-05-02 02:07:00,52.7,45.0,30.08,NNW,345,9.0,13.0,74,0.00,,,0.00,weatherlink.com 1.10,2013-05-02 07:07:00,
2013-05-02 02:22:00,51.6,44.0,30.08,North,9,8.0,17.0,74,0.00,,,0.00,weatherlink.com 1.10,2013-05-02 07:22:00,
2013-05-02 02:37:00,50.8,44.0,30.10,NNW,348,10.0,14.0,76,0.00,,,0.00,weatherlink.com 1.10,2013-05-02 07:37:00,
2013-05-02 02:52:00,50.0,43.0,30.10,North,9,13.0,18.0,76,0.00,,,0.00,weatherlink.com 1.10,2013-05-02 07:52:00,
2013-05-02 03:07:00,49.5,42.0,30.11,NNW,348,7.0,18.0,76,0.00,,,0.00,weatherlink.com 1.10,2013-05-02 08:07:00,
2013-05-02 03:22:00,49.5,43.0,30.12,NW,315,9.0,17.0,77,0.00,,,0.00,weatherlink.com 1.10,2013-05-02 08:22:00,
2013-05-02 03:37:00,49.0,42.0,30.12,NNW,331,14.0,19.0,77,0.00,,,0.00,weatherlink.com 1.10,2013-05-02 08:37:00,
2013-05-02 03:52:00,48.8,42.0,30.12,NNW,339,6.0,14.0,77,0.00,,,0.00,weatherlink.com 1.10,2013-05-02 08:52:00,
2013-05-02 04:07:00,48.4,42.0,30.13,North,360,9.0,16.0,77,0.00,,,0.00,weatherlink.com 1.10,2013-05-02 09:07:00,
2013-05-02 04:22:00,47.7,41.0,30.14,NW,322,8.0,22.0,77,0.00,,,0.00,weatherlink.com 1.10,2013-05-02 09:22:00,
2013-05-02 04:38:00,47.4,41.0,30.15,NNW,344,11.0,17.0,78,0.00,,,0.00,weatherlink.com 1.10,2013-05-02 09:38:00,
2013-05-02 04:53:00,47.0,40.0,30.16,NW,322,10.0,17.0,78,0.00,,,0.00,weatherlink.com 1.10,2013-05-02 09:53:00,
2013-05-02 05:08:00,46.7,40.0,30.16,North,355,10.0,18.0,77,0.00,,,0.00,weatherlink.com 1.10,2013-05-02 10:08:00,
2013-05-02 05:23:00,46.1,40.0,30.16,NNW,333,9.0,18.0,78,0.00,,,0.00,weatherlink.com 1.10,2013-05-02 10:23:00,
2013-05-02 05:38:00,45.6,39.0,30.17,NNW,345,11.0,17.0,78,0.00,,,0.00,weatherlink.com 1.10,2013-05-02 10:38:00,
2013-05-02 05:53:00,45.4,39.0,30.17,NNW,340,16.0,17.0,78,0.00,,,0.00,weatherlink.com 1.10,2013-05-02 10:53:00,
2013-05-02 06:08:00,45.3,39.0,30.17,NNW,331,7.0,19.0,79,0.00,,,0.00,weatherlink.com 1.10,2013-05-02 11:08:00,
2013-05-02 06:23:00,45.4,39.0,30.18,North,355,11.0,17.0,79,0.00,,,0.00,weatherlink.com 1.10,2013-05-02 11:23:00,
2013-05-02 06:38:00,45.3,39.0,30.18,NNW,348,9.0,17.0,79,0.00,,,0.00,weatherlink.com 1.10,2013-05-02 11:38:00,
2013-05-02 06:53:00,45.4,39.0,30.18,NNW,347,3.0,18.0,79,0.00,,,0.00,weatherlink.com 1.10,2013-05-02 11:53:00,
2013-05-02 07:08:00,45.5,40.0,30.21,NW,312,10.0,14.0,80,0.00,,,0.00,weatherlink.com 1.10,2013-05-02 12:08:00,
2013-05-02 07:23:00,45.4,39.0,30.21,NW,321,10.0,14.0,79,0.00,,,0.00,weatherlink.com 1.10,2013-05-02 12:23:00,
2013-05-02 07:38:00,45.4,39.0,30.22,NNW,329,7.0,16.0,79,0.00,,,0.00,weatherlink.com 1.10,2013-05-02 12:38:00,
2013-05-02 07:53:00,45.4,40.0,30.23,NNW,330,11.0,15.0,80,0.00,,,0.00,weatherlink.com 1.10,2013-05-02 12:53:00,
2013-05-02 08:08:00,45.3,40.0,30.23,NNW,327,10.0,19.0,80,0.00,,,0.00,weatherlink.com 1.10,2013-05-02 13:08:00,
2013-05-02 08:23:00,44.7,40.0,30.24,NNW,340,14.0,18.0,83,0.00,,,0.00,weatherlink.com 1.10,2013-05-02 13:23:00,
2013-05-02 08:38:00,44.6,40.0,30.25,North,5,12.0,23.0,84,0.00,,,0.00,weatherlink.com 1.10,2013-05-02 13:38:00,
2013-05-02 08:53:00,44.6,40.0,30.24,NNW,345,9.0,21.0,84,0.00,,,0.00,weatherlink.com 1.10,2013-05-02 13:53:00,
2013-05-02 09:08:00,44.5,40.0,30.24,NW,326,12.0,21.0,85,0.00,,,0.00,weatherlink.com 1.10,2013-05-02 14:08:00,
2013-05-02 09:23:00,44.7,41.0,30.24,NW,309,6.0,20.0,85,0.00,,,0.00,weatherlink.com 1.10,2013-05-02 14:23:00,
2013-05-02 09:38:00,45.2,41.0,30.24,NW,317,10.0,18.0,84,0.00,,,0.00,weatherlink.com 1.10,2013-05-02 14:38:00,
2013-05-02 09:53:00,45.3,40.0,30.24,NE,42,16.0,20.0,83,0.00,,,0.00,weatherlink.com 1.10,2013-05-02 14:53:00,
2013-05-02 10:08:00,45.6,40.0,30.24,NNW,335,12.0,19.0,82,0.00,,,0.00,weatherlink.com 1.10,2013-05-02 15:08:00,
2013-05-02 10:38:00,44.1,40.0,30.26,NNW,346,13.0,17.0,86,0.00,,,0.00,weatherlink.com 1.10,2013-05-02 15:38:00,
2013-05-02 10:53:00,44.3,40.0,30.25,NNW,341,11.0,23.0,85,0.00,,,0.00,weatherlink.com 1.10,2013-05-02 15:53:00,
2013-05-02 11:08:00,44.3,40.0,30.26,NNW,342,11.0,21.0,85,0.00,,,0.00,weatherlink.com 1.10,2013-05-02 16:08:00,
2013-05-02 11:24:00,44.3,40.0,30.27,NNW,331,7.0,20.0,85,0.00,,,0.00,weatherlink.com 1.10,2013-05-02 16:24:00,
2013-05-02 11:39:00,43.7,40.0,30.28,NW,316,14.0,18.0,85,0.00,,,0.00,weatherlink.com 1.10,2013-05-02 16:39:00,
2013-05-02 11:54:00,42.5,39.0,30.28,NNW,338,9.0,21.0,88,0.00,,,0.00,weatherlink.com 1.10,2013-05-02 16:54:00,
2013-05-02 12:09:00,42.6,39.0,30.28,NW,313,8.0,19.0,87,0.00,,,0.00,weatherlink.com 1.10,2013-05-02 17:09:00,
2013-05-02 12:24:00,42.5,38.0,30.29,NNW,334,9.0,23.0,85,0.00,,,0.00,weatherlink.com 1.10,2013-05-02 17:24:00,
2013-05-02 12:39:00,42.9,38.0,30.29,NNW,327,12.0,19.0,84,0.00,,,0.00,weatherlink.com 1.10,2013-05-02 17:39:00,
2013-05-02 12:54:00,42.3,39.0,30.29,NNW,337,13.0,19.0,87,0.01,,,0.01,weatherlink.com 1.10,2013-05-02 17:54:00,
2013-05-02 13:09:00,42.1,39.0,30.29,NNW,334,15.0,20.0,88,0.01,,,0.01,weatherlink.com 1.10,2013-05-02 18:09:00,
2013-05-02 13:24:00,42.1,38.0,30.29,NNW,342,14.0,21.0,85,0.01,,,0.01,weatherlink.com 1.10,2013-05-02 18:24:00,
2013-05-02 13:39:00,42.0,38.0,30.29,NNW,336,14.0,20.0,84,0.01,,,0.01,weatherlink.com 1.10,2013-05-02 18:39:00,
2013-05-02 13:54:00,42.0,37.0,30.28,NNW,337,11.0,21.0,83,0.00,,,0.01,weatherlink.com 1.10,2013-05-02 18:54:00,
2013-05-02 14:09:00,41.6,37.0,30.28,NNE,13,13.0,22.0,83,0.00,,,0.01,weatherlink.com 1.10,2013-05-02 19:09:00,
2013-05-02 14:24:00,40.8,37.0,30.29,NNW,341,14.0,18.0,86,0.01,,,0.02,weatherlink.com 1.10,2013-05-02 19:24:00,
2013-05-02 14:39:00,40.2,37.0,30.31,NW,323,13.0,19.0,88,0.01,,,0.02,weatherlink.com 1.10,2013-05-02 19:39:00,
2013-05-02 14:54:00,40.1,37.0,30.30,NNW,332,8.0,18.0,89,0.03,,,0.04,weatherlink.com 1.10,2013-05-02 19:54:00,
2013-05-02 15:09:00,40.4,38.0,30.31,North,360,16.0,23.0,90,0.03,,,0.04,weatherlink.com 1.10,2013-05-02 20:09:00,
2013-05-02 15:24:00,40.5,38.0,30.30,NNW,346,13.0,18.0,89,0.02,,,0.04,weatherlink.com 1.10,2013-05-02 20:24:00,
2013-05-02 15:39:00,40.4,37.0,30.30,NNW,339,13.0,24.0,88,0.02,,,0.04,weatherlink.com 1.10,2013-05-02 20:39:00,
2013-05-02 15:54:00,40.6,37.0,30.31,NNW,334,8.0,22.0,86,0.00,,,0.04,weatherlink.com 1.10,2013-05-02 20:54:00,
2013-05-02 16:09:00,40.4,37.0,30.30,NNW,327,16.0,25.0,86,0.00,,,0.04,weatherlink.com 1.10,2013-05-02 21:09:00,
2013-05-02 16:24:00,39.8,36.0,30.30,NNW,344,14.0,22.0,86,0.00,,,0.04,weatherlink.com 1.10,2013-05-02 21:24:00,
2013-05-02 16:39:00,39.4,36.0,30.30,NNW,338,14.0,24.0,86,0.00,,,0.04,weatherlink.com 1.10,2013-05-02 21:39:00,
2013-05-02 16:54:00,39.3,35.0,30.31,NNE,22,9.0,22.0,85,0.00,,,0.04,weatherlink.com 1.10,2013-05-02 21:54:00,
2013-05-02 17:09:00,39.5,35.0,30.30,North,351,8.0,25.0,84,0.00,,,0.04,weatherlink.com 1.10,2013-05-02 22:09:00,
2013-05-02 17:24:00,38.8,35.0,30.31,NW,315,15.0,20.0,87,0.03,,,0.07,weatherlink.com 1.10,2013-05-02 22:24:00,
2013-05-02 17:39:00,38.1,35.0,30.31,NW,325,13.0,21.0,89,0.06,,,0.10,weatherlink.com 1.10,2013-05-02 22:39:00,
2013-05-02 17:54:00,37.8,35.0,30.32,NNW,332,11.0,24.0,89,0.08,,,0.12,weatherlink.com 1.10,2013-05-02 22:54:00,
2013-05-02 18:09:00,37.9,35.0,30.33,NNW,341,6.0,22.0,90,0.09,,,0.13,weatherlink.com 1.10,2013-05-02 23:09:00,
2013-05-02 18:24:00,38.0,35.0,30.33,NNE,30,19.0,26.0,90,0.07,,,0.14,weatherlink.com 1.10,2013-05-02 23:24:00,
2013-05-02 18:39:00,37.7,35.0,30.32,NNW,332,14.0,27.0,89,0.05,,,0.15,weatherlink.com 1.10,2013-05-02 23:39:00,
2013-05-02 18:54:00,37.8,35.0,30.32,NW,323,8.0,28.0,89,0.02,,,0.15,weatherlink.com 1.10,2013-05-02 23:54:00,
2013-05-02 19:10:00,37.3,34.0,30.33,NNE,13,9.0,25.0,89,0.02,,,0.15,weatherlink.com 1.10,2013-05-03 00:10:00,
2013-05-02 19:25:00,36.9,34.0,30.34,NNW,340,14.0,21.0,90,0.01,,,0.15,weatherlink.com 1.10,2013-05-03 00:25:00,
2013-05-02 19:40:00,36.2,34.0,30.34,North,5,20.0,28.0,90,0.02,,,0.17,weatherlink.com 1.10,2013-05-03 00:40:00,
2013-05-02 19:55:00,36.0,33.0,30.35,North,355,14.0,25.0,90,0.03,,,0.18,weatherlink.com 1.10,2013-05-03 00:55:00,
2013-05-02 20:10:00,35.5,33.0,30.36,NNW,335,10.0,24.0,90,0.04,,,0.19,weatherlink.com 1.10,2013-05-03 01:10:00,
2013-05-02 20:25:00,35.0,33.0,30.35,North,360,11.0,21.0,91,0.04,,,0.19,weatherlink.com 1.10,2013-05-03 01:25:00,
2013-05-02 20:40:00,34.8,33.0,30.36,NNW,338,12.0,15.0,92,0.03,,,0.20,weatherlink.com 1.10,2013-05-03 01:40:00,
2013-05-02 20:55:00,35.0,33.0,30.36,North,355,5.0,17.0,92,0.03,,,0.21,weatherlink.com 1.10,2013-05-03 01:55:00,
2013-05-02 21:10:00,35.0,33.0,30.36,North,355,8.0,17.0,93,0.03,,,0.22,weatherlink.com 1.10,2013-05-03 02:10:00,
2013-05-02 21:25:00,34.9,33.0,30.37,NW,320,11.0,16.0,93,0.04,,,0.23,weatherlink.com 1.10,2013-05-03 02:25:00,
2013-05-02 21:40:00,34.9,33.0,30.38,NNW,342,11.0,20.0,93,0.05,,,0.25,weatherlink.com 1.10,2013-05-03 02:40:00,
2013-05-02 21:55:00,34.8,33.0,30.37,NNW,348,12.0,17.0,93,0.05,,,0.26,weatherlink.com 1.10,2013-05-03 02:55:00,
2013-05-02 22:10:00,34.7,33.0,30.37,North,355,12.0,17.0,92,0.05,,,0.27,weatherlink.com 1.10,2013-05-03 03:10:00,
2013-05-02 22:25:00,34.6,33.0,30.37,NNW,347,11.0,18.0,93,0.05,,,0.28,weatherlink.com 1.10,2013-05-03 03:25:00,
2013-05-02 22:40:00,34.8,33.0,30.36,North,350,13.0,18.0,93,0.04,,,0.29,weatherlink.com 1.10,2013-05-03 03:40:00,
2013-05-02 22:55:00,34.8,33.0,30.37,NNW,331,6.0,19.0,93,0.04,,,0.30,weatherlink.com 1.10,2013-05-03 03:55:00,
2013-05-02 23:10:00,34.5,33.0,30.37,NNW,338,13.0,22.0,93,0.04,,,0.31,weatherlink.com 1.10,2013-05-03 04:10:00,
2013-05-02 23:25:00,34.6,33.0,30.37,North,355,9.0,18.0,93,0.04,,,0.32,weatherlink.com 1.10,2013-05-03 04:25:00,
2013-05-02 23:40:00,34.5,33.0,30.36,NW,322,9.0,20.0,93,0.03,,,0.32,weatherlink.com 1.10,2013-05-03 04:40:00,
2013-05-02 23:55:00,34.4,33.0,30.35,NNW,342,14.0,16.0,93,0.03,,,0.33,weatherlink.com 1.10,2013-05-03 04:55:00,